Home > Time Zones > World Clock > Weather > Chad > Sarh > Past weeks

Flag Weather past 2 weeks in Sarh, Chad

Now
70 °F

Mild.


Feels Like: 70 °F
Forecast: 76 / 98 °F
Wind: No wind

Location: Sarh Airport

Current Time: Nov 23, 2014 at 7:06:51 AM

Latest Report: Nov 23, 2014 at 6:00 AM


Visibility: N/A

Pressure: 29.95 "Hg

Humidity: 78%

Dew point: 63 °F

Location of SarhLocation

Historic Weather in Sarh — Graph

°F

Sarh temperature yesterday

Maximum temperature yesterday: 95 °F (at 1:00 PM)
Minimum temperature yesterday: 66 °F (at 5:00 AM)
Average temperature yesterday: 79 °F

Past Weeks' High & Low Weather Summary

 TemperatureHumidityPressure
High100 °F (Nov 11, 1:00 PM)100% (Nov 18, 4:00 AM)29.98 "Hg (Nov 18, 4:00 AM)
Low64 °F (Nov 19, 6:00 AM)16% (Nov 20, 1:00 PM)29.71 "Hg (Nov 13, 2:00 PM)
Average82 °F58%29.86 "Hg
* Reported Nov 8 6:00 AM — Nov 23 6:00 AM, Sarh, Weather by CustomWeather, © 2014

Note: Actual official high and low records may vary slightly from our data, if they occured in-between our weather recording intervals... More about our weather records

Advertising

Sarh weather history for previous 24 hours

 ConditionsComfort  
Time TempWeatherWind HumidityBarometerVisibility
6:00 AM
Nov 23
70 °FMild.No wind78%29.95 "HgN/A
5:00 AM68 °FMild.No wind83%29.95 "HgN/A
4:00 AM70 °FMild.No wind78%29.95 "HgN/A
3:00 AM70 °FMild.No wind73%29.92 "HgN/A
2:00 AM72 °FClear.No wind73%29.92 "Hg10 mi
1:00 AM72 °FMild.No wind69%29.92 "HgN/A
12:00 AM72 °FMild.No wind73%29.92 "HgN/A
11:00 PM
Nov 22
72 °FMild.No wind78%29.92 "HgN/A
10:00 PM75 °FMild.No wind65%29.95 "HgN/A
9:00 PM75 °FMild.No wind65%29.95 "HgN/A
8:00 PM77 °FWarm.No wind61%29.92 "HgN/A
7:00 PM81 °FWarm.No wind62%29.92 "HgN/A
6:00 PM81 °FClear.No wind54%29.89 "Hg10 mi
5:00 PM88 °FSunny.No wind35%29.89 "Hg10 mi
4:00 PM91 °FSunny.16 mph36%29.89 "Hg10 mi
3:00 PM91 °FSunny.9 mph26%29.89 "Hg10 mi
2:00 PM93 °FSunny.9 mph32%29.92 "Hg10 mi
1:00 PM95 °FSunny.2 mph26%29.95 "Hg10 mi
12:00 PM93 °FExtremely hot.No wind26%29.95 "HgN/A
11:00 AM90 °FHot.No wind31%29.98 "HgN/A
10:00 AM86 °FPleasantly warm.5 mph27%29.98 "HgN/A
9:00 AM79 °FPleasantly warm.7 mph37%29.98 "HgN/A
8:00 AM73 °FMild.No wind50%29.98 "HgN/A
7:00 AM66 °FMild.No wind68%29.95 "HgN/A
Weather by CustomWeather, © 2014

See weather overviewHow to use our weather pages